Weather in Snagost

Russia / Kursk Oblast     51°18′51″N   34°52′57″E
temp.,
°C
wind,
m/s
gust,
m/s
humid.,
%
clouds,
%
prec.,
mm/h
press.,
hPa
HPBL,
m
22 may, sun
sun2200:00+13ese3498100 3.6 998129
03:00+12w71497100 4.0 998621
06:00+11wnw8139165 0.1 998587
09:00+10w61191100 0.2 998726
12:00+9w71193100 0.2 997835
15:00+10w6992100 0.3 997824
18:00+9ne4993100 0.7 1000534
21:00+8nnw3695100 0.8 1002141
23 may, mon
mon2300:00+8nne399179 0.1 1004331
03:00+5n35925 0.1 1006104
06:00+5n258896 0.0 1007134
09:00+9nne34685 0.0 1008593
12:00+12n455571 0.1 10081848
15:00+13n454987 0.1 10082073
18:00+11ne456466 0.0 1009540
21:00+7s117322 0.0 101010
24 may, tue
tue2400:00+6w35795 0.0 101164
03:00+4wnw34865 0.0 101256
06:00+4wnw36810 0.0 1012139
09:00+11nw586985 0.0 1012759
12:00+13nnw7965100 0.4 10121554
15:00+15nnw5853100 0.4 10121974
18:00+14nw577283 0.5 10121022
21:00+10w4108937 0.8 1014181
25 may, wed
wed2500:00+8wnw4109050 0.0 1015176
03:00+7w48932 0.0 1016130
06:00+10w41186100 0.0 1016260
09:00+15nw697279 0.0 1017636
12:00+17nw68659 0.6 10171222
15:00+19wnw685774 1.4 10171929
18:00+17wnw486747 0.6 1017499
21:00+14wsw368128 0.8 1017102
26 may, thu
thu2600:00+11wsw3480100 0.0 101757
03:00+10sw4108366 0.0 1016159
06:00+11ssw4118159 0.0 1014232
09:00+16ssw71367100 0.0 1012666
12:00+17sw91366100 0.0 10111343
15:00+11sw81496100 4.9 1010794
18:00+14w512866 0.6 1009971
21:00+11w41289100 1.3 1010281